2024-247Y

Last updated on Tue Jan 21 2025 00:02:04 GMT+0000 (Coordinated Universal Time)

1 62399U 24247Y 25020.49889534 .00027751 00000+0 12530-2 0 9991 2 62399 44.9956 198.9438 0003761 180.5759 179.5117 15.20553429 4711
UTC large
Height (km)
Speed (km/s)
/
Latitude / Longitude
Inclination (degrees)
Orbital Period (minutes)
Azimuth
Elevation
Range (km)
Doppler Factor

Next 0 passes for location: London (51.5072 / 0.1276)

Sorry there are no passes over London.